Location: ?????????
(38.0736°N, 23.2119°E)
Time: 13:55:46
(UTC+00:00)

Cosmos 1980 Rocket - Pass Details

Date: 18 April 2024
Orbit: 827 x 851 km, 71.0° (Epoch: 17 May)

Event Time Altitude Azimuth Distance (km) Brightness Sun altitude
Exits shadow 21:54:58 19° 317° (NW) 1,902 4.4 -40.1°
Drops below altitude 10° 21:58:09 10° 351° (N) 2,458 5.3 -40.2°
Sets 22:01:20 0° 9° (N) 3,402 6.2 -40.3°
